Date String (YYYY-MM-DD hh:mm:ss) UTC,Instrument flags,absolute air pressure of the measurement (hPa),sample flow rate (lpm),inlet stack bypass flow (lpm),air temperature of the measurement (°C),ambient temperature measured by the external sensor (°C),aerosol sample conditioner tube jacket temperature (°C),OPC LED temperature (°C),internal box temperature (°C),relative humidity of the measurement (%),span deviation,mass concentration of particles derived from Lorenz-Mie calculation of OPC scattering (μg/m³),mass concentration of particles derived from Lorenz-Mie calculation of OPC scattering (μg/m³),mass concentration of particles derived from Lorenz-Mie calculation of OPC scattering (μg/m³)
DateTimeUTC,F1_M11,P_M11,Q1_M11,Q2_M11,T1_M11,T2_M11,T3_M11,T4_M11,T5_M11,U1_M11,ZSPAN_M11,X0_M11,X2_M11,X1_M11
2023-12-26 21:00:00,SystemResetWarning,0822.8,4.99,000.00,018.8,018.1,000.0,027.2,020.0,15.6,0000.0,0007.46,0002.44,0001.83
2023-12-26 21:01:00,SystemResetWarning,0822.6,5.00,000.00,018.8,018.1,000.0,027.2,020.0,15.5,0000.0,0006.39,0002.42,0001.82
2023-12-26 21:02:00,SystemResetWarning,0822.6,5.00,000.00,018.8,018.0,000.0,027.2,020.0,15.4,0000.0,0005.80,0002.42,0001.82
2023-12-26 21:03:00,SystemResetWarning,0822.9,5.00,000.00,018.8,018.0,000.0,027.2,020.0,15.4,0000.0,0005.76,0002.45,0001.82
2023-12-26 21:04:00,SystemResetWarning,0822.9,5.00,000.00,018.8,018.0,000.0,027.2,020.0,15.0,0000.0,0005.07,0002.46,0001.83
2023-12-26 21:05:00,SystemResetWarning,0822.8,5.00,000.00,018.8,018.0,000.0,027.2,020.0,15.3,0000.0,0004.84,0002.52,0001.84
2023-12-26 21:06:00,SystemResetWarning,0822.8,5.00,000.00,018.8,018.0,000.0,027.2,020.0,15.4,0000.0,0005.56,0002.58,0001.87
2023-12-26 21:07:00,SystemResetWarning,0822.8,5.00,000.00,018.8,018.0,000.0,027.2,020.0,15.5,0000.0,0006.20,0002.57,0001.89
2023-12-26 21:08:00,SystemResetWarning,0822.8,5.00,000.00,018.8,018.1,000.0,027.2,020.0,15.4,0000.0,0007.10,0002.61,0001.91
2023-12-26 21:09:00,SystemResetWarning,0822.7,5.00,000.00,018.8,018.1,000.0,027.2,020.0,15.3,0000.0,0008.70,0002.64,0001.93
2023-12-26 21:10:00,SystemResetWarning,0822.7,5.00,000.00,018.8,018.1,000.0,027.2,020.0,15.4,0000.0,0009.03,0002.61,0001.93
2023-12-26 21:11:00,SystemResetWarning,0822.7,5.00,000.00,018.8,018.1,000.0,027.2,020.0,15.2,0000.0,0009.13,0002.58,0001.93
2023-12-26 21:12:00,SystemResetWarning,0822.8,5.00,000.00,018.8,018.1,000.0,027.2,020.0,15.4,0000.0,0009.82,0002.61,0001.93
2023-12-26 21:13:00,SystemResetWarning,0822.8,5.00,000.00,018.8,018.1,000.0,027.2,020.0,15.7,0000.0,0010.07,0002.69,0001.93
2023-12-26 21:14:00,SystemResetWarning,0823.1,4.99,000.00,018.8,018.1,000.0,027.2,020.0,15.8,0000.0,0010.01,0002.64,0001.91
2023-12-26 21:15:00,SystemResetWarning,0822.8,5.00,000.00,018.8,018.1,000.0,027.2,020.0,15.5,0000.0,0010.05,0002.66,0001.92
2023-12-26 21:16:00,SystemResetWarning,0823.2,5.00,000.00,018.8,018.1,000.0,027.2,020.0,15.7,0000.0,0010.41,0002.65,0001.93
2023-12-26 21:17:00,SystemResetWarning,0823.3,5.00,000.00,018.8,018.1,000.0,027.2,020.1,15.6,0000.0,0010.61,0002.63,0001.92
2023-12-26 21:18:00,SystemResetWarning,0823.0,5.01,000.00,018.8,018.1,000.0,027.2,020.1,15.9,0000.0,0010.26,0002.61,0001.92
2023-12-26 21:19:00,SystemResetWarning,0822.8,5.00,000.00,018.8,018.2,000.0,027.2,020.1,16.1,0000.0,0009.71,0002.57,0001.92
2023-12-26 21:20:00,SystemResetWarning,0822.9,5.00,000.00,018.8,018.2,000.0,027.2,020.1,16.4,0000.0,0008.21,0002.58,0001.93
2023-12-26 21:21:00,SystemResetWarning,0822.8,4.99,000.00,018.8,018.2,000.0,027.2,020.1,16.4,0000.0,0007.74,0002.60,0001.95
2023-12-26 21:22:00,SystemResetWarning,0822.8,5.00,000.00,018.8,018.2,000.0,027.2,020.1,16.5,0000.0,0007.60,0002.64,0001.98
2023-12-26 21:23:00,SystemResetWarning,0822.7,5.00,000.00,018.8,018.2,000.0,027.2,020.0,16.2,0000.0,0006.70,0002.68,0002.00
2023-12-26 21:24:00,SystemResetWarning,0822.8,5.00,000.00,018.8,018.2,000.0,027.2,020.0,15.8,0000.0,0007.20,0002.68,0002.05
2023-12-26 21:25:00,SystemResetWarning,0822.8,5.00,000.00,018.8,018.2,000.0,027.2,020.0,15.7,0000.0,0007.66,0002.77,0002.10
2023-12-26 21:26:00,SystemResetWarning,0822.8,5.01,000.00,018.8,018.2,000.0,027.2,020.0,16.0,0000.0,0007.68,0002.80,0002.14
2023-12-26 21:27:00,SystemResetWarning,0822.8,5.00,000.00,018.8,018.2,000.0,027.2,020.0,16.0,0000.0,0007.11,0002.79,0002.16
2023-12-26 21:28:00,SystemResetWarning,0822.7,5.00,000.00,018.8,018.2,000.0,027.2,020.0,16.0,0000.0,0006.92,0002.83,0002.17
2023-12-26 21:29:00,SystemResetWarning,0822.7,5.00,000.00,018.8,018.2,000.0,027.2,020.0,16.0,0000.0,0007.40,0002.87,0002.17
2023-12-26 21:30:00,SystemResetWarning,0822.9,5.00,000.00,018.8,018.2,000.0,027.2,020.0,15.9,0000.0,0007.48,0002.93,0002.18
2023-12-26 21:31:00,SystemResetWarning,0823.0,4.99,000.00,018.8,018.2,000.0,027.2,020.0,16.0,0000.0,0007.30,0002.90,0002.17
2023-12-26 21:32:00,SystemResetWarning,0822.8,4.99,000.00,018.8,018.2,000.0,027.2,020.0,15.9,0000.0,0007.40,0002.94,0002.16
2023-12-26 21:33:00,SystemResetWarning,0822.9,5.01,000.00,018.8,018.2,000.0,027.2,020.0,15.6,0000.0,0007.46,0002.96,0002.14
2023-12-26 21:34:00,SystemResetWarning,0822.8,5.01,000.00,018.9,018.2,000.0,027.2,020.0,15.4,0000.0,0008.19,0002.95,0002.12
2023-12-26 21:35:00,SystemResetWarning,0822.8,4.99,000.00,018.8,018.1,000.0,027.2,020.0,15.3,0000.0,0008.30,0002.93,0002.08
2023-12-26 21:36:00,SystemResetWarning,0823.1,4.99,000.00,018.8,018.1,000.0,027.2,020.0,15.2,0000.0,0007.90,0002.90,0002.05
2023-12-26 21:37:00,SystemResetWarning,0823.3,5.00,000.00,018.8,018.0,000.0,027.2,020.0,15.5,0000.0,0008.00,0002.89,0002.01
2023-12-26 21:38:00,SystemResetWarning,0823.2,5.02,000.00,018.8,018.1,000.0,027.2,020.0,15.3,0000.0,0008.09,0002.86,0001.98
2023-12-26 21:39:00,SystemResetWarning,0823.2,4.99,000.00,018.8,018.1,000.0,027.2,020.0,15.4,0000.0,0007.82,0002.82,0001.97
2023-12-26 21:40:00,SystemResetWarning,0823.1,5.00,000.00,018.8,018.1,000.0,027.2,020.0,15.6,0000.0,0008.20,0002.85,0001.97
2023-12-26 21:41:00,SystemResetWarning,0822.8,5.00,000.00,018.8,018.2,000.0,027.2,020.0,15.7,0000.0,0008.46,0002.88,0001.96
2023-12-26 21:42:00,SystemResetWarning,0822.9,4.99,000.00,018.8,018.2,000.0,027.2,020.0,15.6,0000.0,0008.55,0003.00,0001.97
2023-12-26 21:43:00,SystemResetWarning,0823.1,4.99,000.00,018.9,018.2,000.0,027.2,020.0,15.8,0000.0,0008.62,0003.06,0001.98
2023-12-26 21:44:00,SystemResetWarning,0823.2,5.02,000.00,018.9,018.2,000.0,027.2,020.0,15.5,0000.0,0008.65,0003.05,0001.97
2023-12-26 21:45:00,SystemResetWarning,0823.4,5.00,000.00,018.9,018.2,000.0,027.2,020.0,15.3,0000.0,0008.62,0003.09,0001.98
2023-12-26 21:46:00,SystemResetWarning,0823.0,4.99,000.00,018.9,018.1,000.0,027.2,020.0,15.2,0000.0,0007.78,0003.11,0001.99
2023-12-26 21:47:00,SystemResetWarning,0822.8,5.00,000.00,018.8,018.1,000.0,027.2,020.0,15.3,0000.0,0007.58,0003.11,0002.01
2023-12-26 21:48:00,SystemResetWarning,0822.9,5.01,000.00,018.8,018.1,000.0,027.2,020.0,15.6,0000.0,0007.53,0003.09,0002.01
2023-12-26 21:49:00,SystemResetWarning,0823.1,5.00,000.00,018.8,018.0,000.0,027.2,020.0,15.5,0000.0,0007.43,0003.09,0002.00
2023-12-26 21:50:00,SystemResetWarning,0823.0,5.01,000.00,018.8,018.0,000.0,027.2,020.0,15.5,0000.0,0007.37,0003.08,0002.01
2023-12-26 21:51:00,SystemResetWarning,0823.0,5.00,000.00,018.8,018.0,000.0,027.2,020.0,15.5,0000.0,0007.50,0003.12,0002.02
2023-12-26 21:52:00,SystemResetWarning,0823.3,4.99,000.00,018.8,018.1,000.0,027.2,020.0,15.7,0000.0,0006.07,0003.07,0002.00
2023-12-26 21:53:00,SystemResetWarning,0823.3,4.99,000.00,018.8,018.1,000.0,027.2,020.0,15.5,0000.0,0006.12,0003.01,0001.99
2023-12-26 21:54:00,SystemResetWarning,0823.1,4.99,000.00,018.8,018.1,000.0,027.2,020.0,15.4,0000.0,0005.74,0002.89,0001.98
2023-12-26 21:55:00,SystemResetWarning,0822.9,5.00,000.00,018.8,018.2,000.0,027.2,020.0,15.3,0000.0,0005.45,0002.85,0001.98
2023-12-26 21:56:00,SystemResetWarning,0823.0,5.00,000.00,018.8,018.2,000.0,027.2,020.0,15.2,0000.0,0005.33,0002.79,0001.98
2023-12-26 21:57:00,SystemResetWarning,0823.0,5.00,000.00,018.9,018.2,000.0,027.2,020.0,15.3,0000.0,0006.35,0002.74,0001.96
2023-12-26 21:58:00,SystemResetWarning,0823.0,5.00,000.00,018.8,018.2,000.0,027.2,020.0,15.1,0000.0,0006.31,0002.71,0001.94
2023-12-26 21:59:00,SystemResetWarning,0823.0,5.00,000.00,018.8,018.1,000.0,027.2,020.0,14.8,0000.0,0007.10,0002.71,0001.93
